Weather History for LICZ - April, 2014

Change the Weather History Date:

Monday, April 28, 2014

  Actual Average Record
Temperature  
Mean Temperature 62 °F -  
Max Temperature 75 °F 77 °F 79 °F (2012)
Min Temperature 50 °F 53 °F 46 °F (2008)
Degree Days  
Heating Degree Days 2    
Growing Degree Days 12 (Base 50)    
Moisture  
Dew Point 45 °F    
Average Humidity 61    
Maximum Humidity 100    
Minimum Humidity 19    
Precipitation  
Precipitation 0.00 in 0.03 in - ()
Sea Level Pressure  
Sea Level Pressure 29.82 in    
Wind  
Wind Speed 12 mph ()    
Max Wind Speed 22 mph    
Max Gust Speed 24 mph    
Visibility 7.1 miles    
Events      
Averages and records for this station are not official NWS values.
T = Trace of Precipitation, MM = Missing Value Source: Averaged Metar Reports

Daily Weather History Graph

Daily Weather History Graph

Search for Another Location

Airport or City:

Trip Planner

Search our weather history database for the weather conditions in past years. The results will help you decide how hot, cold, wet, or windy it might be!

Date:

Astronomy

Apr. 28, 2014 Rise Set
Actual Time 6:09 AM CEST 7:47 PM CEST
Civil Twilight 5:41 AM CEST 8:15 PM CEST
Nautical Twilight 5:07 AM CEST 8:48 PM CEST
Astronomical Twilight 4:32 AM CEST 9:24 PM CEST
Moon 5:34 AM CEST (4/28) 7:07 PM CEST (4/28)
Length of Visible Light 14h 33m
Length of Day
13h 38m
Waning Crescent, 1% of the Moon is Illuminated
Apr 28
Waning Crescent
Apr 29
New
May 7
First Quarter
May 14
Full
May 21
Last Quarter

Hourly Weather History & Observations

Time (CEST) Temp. Dew Point Humidity Pressure Visibility Wind Dir Wind Speed Gust Speed Precip Events Conditions
12:55 AM 55.4 °F 55.4 °F 100% 29.80 in 6.2 mi West 8.1 mph - N/A   Partly Cloudy
1:55 AM 55.4 °F 55.4 °F 100% 29.80 in 6.2 mi West 15.0 mph - N/A   Partly Cloudy
2:00 AM 55 °F 55 °F 100% 29.81 in 6 mi West 15.0 mph - -   Scattered Clouds
2:55 AM 55.4 °F 55.4 °F 100% 29.80 in 6.2 mi West 13.8 mph - N/A   Partly Cloudy
3:55 AM 53.6 °F 53.6 °F 100% 29.77 in 6.2 mi West 16.1 mph - N/A   Partly Cloudy
4:55 AM 51.8 °F 51.8 °F 100% 29.77 in 6.2 mi NNE 12.7 mph - N/A   Partly Cloudy
5:00 AM 51 °F 51 °F 100% 29.79 in 6 mi NNE 12.7 mph - -   Partly Cloudy
5:55 AM 50.0 °F 50.0 °F 100% 29.77 in - West 6.9 mph - N/A   Clear
6:55 AM 51.8 °F 48.2 °F 88% 29.80 in 6.2 mi West 11.5 mph - N/A   Partly Cloudy
7:55 AM 55.4 °F 48.2 °F 77% 29.80 in 6.2 mi West 17.3 mph - N/A   Partly Cloudy
8:00 AM 55 °F 47 °F 68% 29.83 in 6 mi West 17.3 mph - -   Scattered Clouds
8:55 AM 60.8 °F 46.4 °F 59% 29.80 in 6.2 mi West 19.6 mph - N/A   Partly Cloudy
9:55 AM 64.4 °F 46.4 °F 52% 29.80 in 6.2 mi WNW 21.9 mph - N/A   Partly Cloudy
10:55 AM 66.2 °F 42.8 °F 43% 29.80 in 6.2 mi WNW 20.7 mph - N/A   Partly Cloudy
11:00 AM 66 °F 43 °F 31% 29.82 in 10 mi WNW 20.7 mph - -   Scattered Clouds
11:55 AM 69.8 °F 41.0 °F 35% 29.80 in 6.2 mi WNW 16.1 mph - N/A   Partly Cloudy
12:55 PM 73.4 °F 41.0 °F 31% 29.80 in 6.2 mi WNW 17.3 mph - N/A   Scattered Clouds
1:55 PM 71.6 °F 39.2 °F 31% 29.80 in 6.2 mi WNW 12.7 mph 24.2 mph N/A   Scattered Clouds
2:00 PM 72 °F 38 °F 19% 29.82 in 12 mi WNW 12.7 mph - -   Partly Cloudy
2:55 PM 73.4 °F 37.4 °F 27% 29.80 in 6.2 mi West 20.7 mph - N/A   Scattered Clouds
3:55 PM 73.4 °F 37.4 °F 27% 29.80 in 6.2 mi WNW 20.7 mph - N/A   Scattered Clouds
4:55 PM 71.6 °F 39.2 °F 31% 29.80 in 6.2 mi NW 13.8 mph - N/A   Scattered Clouds
5:00 PM 72 °F 39 °F 20% 29.82 in 11 mi NW 13.8 mph - -   Scattered Clouds
5:55 PM 71.6 °F 41.0 °F 33% 29.83 in 6.2 mi WNW 17.3 mph - N/A   Partly Cloudy
6:55 PM 68.0 °F 39.2 °F 35% 29.83 in 6.2 mi WNW 15.0 mph - N/A   Scattered Clouds
8:00 PM 63 °F 38 °F 28% 29.87 in 11 mi NNW 10.4 mph - -   Scattered Clouds
8:55 PM 60.8 °F 39.2 °F 45% 29.89 in - WNW 6.9 mph - N/A   Clear
9:55 PM 51.8 °F 46.4 °F 82% 29.89 in - West 6.9 mph - N/A   Clear
10:55 PM 51.8 °F 46.4 °F 82% 29.89 in - WSW 9.2 mph - N/A   Clear
11:00 PM 53 °F 47 °F 72% 29.92 in 12 mi WSW 9.2 mph - -  
11:55 PM 51.8 °F 46.4 °F 82% 29.92 in - West 9.2 mph - N/A   Clear